Rexburg, ID

1:52 AM MDT on May 23, 2018 (GMT -0600)
Rexburg-Madison County

Weather History for KRXE - July, 2014

Change the Weather History Date:

Sunday, July 6, 2014

  Actual Average Record
Temperature  
Mean Temperature 71 °F 65 °F  
Max Temperature 91 °F 81 °F 96 °F (2007)
Min Temperature 51 °F 49 °F 43 °F (1999)
Degree Days  
Heating Degree Days 0 2  
Month to date heating degree days 3 13  
Since 1 June heating degree days 158 185  
Since 1 July heating degree days 3 13  
Cooling Degree Days 6 2  
Month to date cooling degree days 27 7  
Year to date cooling degree days 30 29  
Since 1 June cooling degree days 30 25  
Growing Degree Days 21 (Base 50)    
Moisture  
Dew Point 43 °F    
Average Humidity 47    
Maximum Humidity 77    
Minimum Humidity 16    
Precipitation  
Precipitation 0.00 in 0.04 in 0.11 in (1982)
Month to date precipitation T 0.20  
Year to date precipitation 5.79 7.44  
Sea Level Pressure  
Sea Level Pressure 30.02 in    
Wind  
Wind Speed 5 mph (ESE)    
Max Wind Speed 13 mph    
Max Gust Speed 18 mph    
Visibility 10 miles    
Events      
T = Trace of Precipitation, MM = Missing Value Source: NWS Daily Summary

Daily Weather History Graph

Daily Weather History Graph

Search for Another Location

Airport or City:

Astronomy

Jul. 06, 2014 Rise Set
Actual Time 5:51 AM MDT 9:11 PM MDT
Civil Twilight 5:16 AM MDT 9:47 PM MDT
Nautical Twilight 4:29 AM MDT 10:33 PM MDT
Astronomical Twilight 3:32 AM MDT 11:30 PM MDT
Moon 3:08 PM MDT (7/6) 1:20 AM MDT (7/6)
Length of Visible Light 16h 31m
Length of Day
15h 19m
Waxing Gibbous, 63% of the Moon is Illuminated
Jul 6
Waxing Gibbous
Jul 12
Full
Jul 18
Last Quarter
Jul 26
New
Aug 3
First Quarter

Hourly Weather History & Observations

Time (MDT) Temp. Dew Point Humidity Pressure Visibility Wind Dir Wind Speed Gust Speed Precip Events Conditions
12:53 AM 71.1 °F 34.0 °F 26% 29.98 in 10.0 mi South 11.5 mph - N/A   Clear
1:53 AM 63.0 °F 39.9 °F 43% 30.01 in 10.0 mi NW 3.5 mph - N/A   Clear
2:53 AM 59.0 °F 44.1 °F 58% 30.02 in 10.0 mi NE 4.6 mph - N/A   Clear
3:53 AM 53.1 °F 44.1 °F 71% 30.06 in 10.0 mi NE 5.8 mph - N/A   Clear
4:53 AM 52.0 °F 44.1 °F 74% 30.07 in 10.0 mi ENE 8.1 mph - N/A   Clear
5:53 AM 51.1 °F 43.0 °F 74% 30.10 in 10.0 mi ENE 4.6 mph - N/A   Clear
6:53 AM 52.0 °F 43.0 °F 71% 30.11 in 10.0 mi NE 3.5 mph - N/A   Clear
7:53 AM 57.9 °F 46.0 °F 65% 30.12 in 10.0 mi NE 3.5 mph - N/A   Clear
8:53 AM 64.9 °F 48.0 °F 54% 30.12 in 10.0 mi NE 4.6 mph - N/A   Clear
9:53 AM 71.1 °F 46.0 °F 41% 30.11 in 10.0 mi Calm Calm - N/A   Clear
10:53 AM 77.0 °F 43.0 °F 30% 30.09 in 10.0 mi Variable 3.5 mph - N/A   Clear
11:53 AM 80.1 °F 39.9 °F 24% 30.07 in 10.0 mi Variable 4.6 mph - N/A   Clear
12:53 PM 82.0 °F 46.9 °F 29% 30.05 in 10.0 mi WSW 8.1 mph - N/A   Clear
1:53 PM 86.0 °F 41.0 °F 20% 30.04 in 10.0 mi Variable 4.6 mph - N/A   Clear
2:53 PM 88.0 °F 37.0 °F 16% 30.03 in 10.0 mi WSW 6.9 mph - N/A   Clear
3:53 PM 89.1 °F 37.0 °F 16% 30.01 in 10.0 mi SSW 8.1 mph - N/A   Clear
4:53 PM 91.0 °F 39.0 °F 16% 29.99 in 10.0 mi South 6.9 mph - N/A   Clear
5:53 PM 89.1 °F 39.9 °F 18% 29.97 in 10.0 mi South 8.1 mph - N/A   Clear
6:53 PM 88.0 °F 39.9 °F 18% 29.96 in 10.0 mi SSE 8.1 mph - N/A   Clear
7:53 PM 87.1 °F 39.9 °F 19% 29.93 in 10.0 mi SE 4.6 mph - N/A   Clear
8:53 PM 81.0 °F 50.0 °F 34% 29.92 in 10.0 mi SSW 3.5 mph - N/A   Clear
9:53 PM 73.9 °F 55.9 °F 53% 29.93 in 10.0 mi Calm Calm - N/A   Clear
10:53 PM 69.1 °F 48.0 °F 47% 29.92 in 10.0 mi ENE 5.8 mph - N/A   Clear
11:53 PM 69.1 °F 43.0 °F 39% 29.90 in 10.0 mi Variable 3.5 mph - N/A   Clear